Simultaneous Nadir Overpasses (SNOs) Predictions

Prediction of SNOs between AQUA and GOES-15 Satellite Orbit:

Table of predicted SNOs for the next 14.0 days since TLE Epoch: 9/4/2021
Index Date Time (AQUA) AQUA Lat,Lon GOES-15 Lat,Lon Distance(km) Time Diff (sec)
1 09/05/2021 22:10:05 -0.49,-128.58 -0.42,-128.19 43.60 80
2 09/07/2021 21:57:54 0.14,-125.62 -0.42,-128.17 290.29 80
3 09/08/2021 10:19:09 0.99,-130.77 0.42,-128.22 291.09 80
4 09/10/2021 10:06:58 0.36,-127.82 0.42,-128.19 42.29 80
5 09/12/2021 09:54:47 -0.27,-124.86 0.42,-128.16 374.77 80
6 09/12/2021 22:16:11 -0.85,-130.05 -0.41,-128.10 222.45 80
7 09/14/2021 22:04:00 -0.21,-127.10 -0.40,-128.06 109.02 80
8 09/15/2021 10:25:15 1.28,-132.26 0.39,-128.09 473.56 80
9 09/16/2021 21:51:49 0.44,-124.14 -0.40,-128.01 440.09 80
10 09/17/2021 10:13:05 0.64,-129.30 0.38,-128.05 142.54 80
